SCP
0 0 0 0 0 0 0 0 0 0 0 0 0 0 0 0 0 0 0 0 0 0 0 0 0 0 0 0 0 0 0 0 0 0 0 0 0 0 0 0 0 0 0
0 0 0 0 0 0 0 0 0 0 0 0 0 0 0 0 0 0 0 0 0 0 0 0 0 0 0 0 0 0 0 0 0 0 0 0 0 0 0 0 0 0 0
0 0 0 0 0 0 0 0 0 0 0 0 0 0 0 0 0 0 0 0 0 0 0 0 0 0 0 0 0 0 0 0 0 0 0 0 0 0 0 0 0 0 0
0 0 0 0 0 0 0 0 0 0 0 0 0 0 0 0 0 0 0 0 0 0 0 0 0 0 0 0 0 0 0 0 0 0 0 0 0 0 0 0 0 0 0
0 0 0 0 0 0 0 0 0 0 0 0 0 0 0 0 0 0 0 0 0 0 0 0 0 0 0 0 0 0 0 0 0 0 0 0 0 0 0 0 0 0 0
-0 0 0 0 0 0 0 0 0 0 0 0 0 0 0 0 0 0 0 -0 0 0 0 0 0 0 0 0 0 0 0 0 0 0 0 0 0 0 0 0 0 0 0
-0 0 0 0 0 0 0 0 0 0 0 0 0 0 0 -0 0 0 -0 -0 -0 -0 0 0 0 0 0 0 0 0 0 0 0 0 0 0 0 0 0 0 0 0 0
-0 0 0 0 0 0 0 0 0 0 0 0 0 0 0 0 0 0 0 -0 -0 -0 -0 0 0 0 0 0 0 0 0 0 0 0 0 0 0 0 0 0 0 0 0
0 0 0 0 0 0 0 0 0 0 0 0 0 0 0 0 0 0 0 0 0 -0 -0 0 0 0 0 0 0 0 0 0 0 0 0 0 0 0 0 0 0 0 0
0 0 0 0 0 0 0 0 0 0 0 0 0 0 0 0 0 0 0 0 0 0 0 0 0 0 0 0 0 0 0 0 0 0 0 0 0 0 0 0 0 0 0
0 0 0 0 0 0 0 0 0 0 0 0 0 0 0 0 0 0 0 0 0 0 0 0 0 0 0 0 0 0 0 0 0 0 0 0 0 0 0 0 0 0 0
0 0 0 0 0 0 0 0 0 0 0 0 0 0 0 0 0 0 0 0 0 0 0 0 0 0 0 0 0 0 0 0 0 0 0 0 0 0 0 0 0 0 0
0 0 0 0 0 0 0 0 0 0 0 0 0 0 0 0 0 -0 -0 0 0 0 0 0 0 0 0 0 0 0 0 0 0 0 0 0 0 0 0 0 0 0 0
0 0 0 0 0 0 0 0 0 0 0 0 0 0 0 0 0 -0 -0 0 0 0 0 0 0 0 0 0 0 0 0 0 0 0 0 0 0 0 0 0 0 0 0
0 0 0 0 0 0 0 0 0 0 0 0 0 0 0 0 0 0 -0 0 0 0 0 0 0 0 0 0 0 0 0 0 0 0 0 0 0 0 0 0 0 0 0
0 0 0 0 0 0 0 0 0 0 0 0 0 0 0 0 0 0 0 0 0 0 0 0 0 0 0 0 0 0 0 0 0 0 0 0 0 0 0 0 0 0 0
0 0 0 0 0 0 0 0 0 0 0 0 0 0 0 0 0 0 0 0 -0 -0 0 0 0 0 0 0 0 0 0 0 0 0 0 0 0 0 0 0 0 0 0
0 0 0 0 0 0 0 0 0 0 0 0 0 0 0 0 0 0 0 0 0 0 0 0 0 0 0 0 0 0 0 0 0 0 0 0 0 0 0 0 0 0 0
0 0 0 0 0 0 0 0 0 0 0 0 0 0 0 0 0 0 0 0 0 0 0 0 0 0 0 0 0 0 0 0 0 0 0 0 0 0 0 0 0 0 0
0 0 0 0 0 0 0 0 0 0 0 0 0 0 0 0 0 0 0 0 0 0 0 0 0 0 0 0 0 0 0 0 0 0 0 0 0 0 0 0 0 0 0
0 0 0 0 0 0 0 0 0 0 0 0 0 0 0 0 0 0 0 0 0 0 0 0 0 0 0 0 0 0 0 0 0 0 0 0 0 0 0 0 0 0 0
0 0 0 0 0 0 0 0 0 0 0 0 0 0 0 0 0 0 0 0 0 0 0 0 0 0 0 0 0 0 0 0 0 0 0 0 0 0 0 0 0 0 0
0 0 0 0 0 0 0 0 0 0 0 0 0 0 0 0 0 0 0 0 0 0 0 0 0 0 0 0 0 0 0 0 0 0 0 0 0 0 0 0 0 0 0
0 0 0 0 0 0 0 0 0 0 0 0 0 0 0 0 0 0 0 0 0 0 0 0 0 0 0 0 0 0 0 0 0 0 0 0 0 0 0 0 0 0 0
0 0 0 0 0 0 0 0 0 -0 -0 0 0 0 0 0 0 0 0 0 0 0 0 0 0 0 0 0 0 0 0 0 0 0 0 0 0 0 0 0 0 0 0
0 0 0 0 0 0 0 0 0 -0 -0 0 0 0 0 0 0 0 0 0 0 0 0 0 0 0 0 0 0 0 0 0 0 0 0 0 0 0 0 0 0 0 0
Wind_Speed
5 4 4 4 4 4 3 3 3 3 3 4 3 3 3 3 3 3 3 3 3 2 2 3 2 2 2 2 2 2 3 3 3 0 1 1 1 1 2 2 2 2 2
5 4 5 4 4 3 3 3 3 3 3 3 4 3 3 3 3 3 3 3 3 3 2 3 2 3 3 2 2 2 2 2 3 2 0 1 0 0 1 1 2 1 1
5 5 4 4 4 4 4 3 3 3 3 3 4 4 4 3 3 3 3 3 3 3 3 3 3 3 3 2 2 2 1 2 2 3 1 0 1 1 1 1 2 2 2
5 5 5 5 5 4 4 3 4 4 3 3 3 4 4 3 3 3 3 3 2 2 2 3 3 4 4 4 3 2 2 3 3 2 1 0 1 1 1 1 2 2 2
6 6 6 5 4 4 4 4 3 4 4 4 4 3 3 3 3 4 3 3 3 2 2 2 2 4 6 5 4 4 4 3 2 2 1 1 1 1 1 1 0 1 2
7 7 6 5 5 5 4 4 3 3 3 4 4 4 4 3 6 7 5 3 3 3 2 1 1 2 4 5 6 7 7 5 4 3 1 1 2 2 1 0 0 1 2
7 6 6 6 6 5 5 4 4 4 4 4 4 4 4 3 6 7 7 4 3 3 3 2 2 2 3 3 4 4 3 4 6 5 4 3 3 3 2 1 1 1 2
7 6 6 6 6 5 5 5 4 4 4 4 4 4 4 3 6 7 7 4 3 3 3 3 3 2 3 4 4 3 1 1 2 3 3 3 3 3 3 3 3 1 1
7 7 7 7 7 6 6 6 5 4 4 4 4 4 4 3 5 7 7 3 3 2 2 3 3 3 4 6 5 3 1 1 1 2 2 2 1 2 3 2 2 1 1
9 8 7 7 8 8 7 6 4 4 5 4 4 4 4 3 5 7 7 3 3 2 1 1 3 4 5 7 5 4 3 1 1 2 2 2 1 1 2 2 2 2 1
7 7 7 7 8 8 6 5 4 5 4 4 4 3 3 4 4 6 8 4 4 3 2 1 1 5 6 6 5 4 4 3 2 2 1 1 2 2 1 1 1 2 2
6 6 7 7 7 6 6 5 5 6 5 4 3 2 1 2 3 5 7 7 6 4 3 2 2 5 5 6 4 4 4 4 2 2 1 1 1 1 1 1 0 0 1
6 6 5 5 5 5 7 6 5 5 4 4 3 3 2 1 2 5 7 8 7 4 2 4 4 4 3 3 3 4 4 2 2 2 1 1 1 1 0 1 2 2 2
7 6 6 5 4 3 4 5 5 5 5 5 4 4 2 2 2 2 3 3 4 3 2 2 3 2 2 2 2 2 1 2 2 2 1 1 0 0 0 0 0 1 1
7 6 6 5 6 4 3 3 4 5 6 7 5 5 5 4 5 7 5 4 4 4 4 2 2 1 1 1 1 1 1 1 1 1 1 0 0 0 0 0 0 1 0
7 6 5 5 5 5 4 3 2 3 5 6 6 6 4 5 6 7 7 7 7 8 6 3 2 2 2 2 2 1 1 1 1 1 1 1 1 1 1 0 0 1 1
7 6 5 5 5 5 5 5 3 2 3 3 4 6 6 6 7 8 8 7 7 8 4 3 3 3 3 2 2 2 2 2 1 2 2 2 1 1 1 1 1 1 2
6 7 6 5 5 5 4 4 4 5 3 1 1 4 6 6 6 7 7 7 4 3 2 2 3 3 2 2 2 2 2 1 1 2 2 1 2 1 1 1 2 2 2
5 5 5 4 5 4 4 4 3 4 4 3 2 2 4 5 5 4 6 4 4 3 3 2 2 2 2 2 2 2 2 2 2 2 2 2 2 2 2 2 2 3 2
4 7 6 5 4 4 4 4 4 4 4 3 3 2 2 3 3 2 3 3 3 3 3 3 2 2 2 2 2 2 2 2 2 2 2 2 2 2 3 3 2 2 3
4 5 7 5 4 4 4 4 4 4 4 3 3 3 6 4 4 3 3 3 3 3 3 2 2 2 2 2 2 2 2 2 2 2 2 2 2 2 2 2 2 2 2
4 4 4 4 4 4 4 4 4 4 4 4 3 3 7 3 3 3 3 3 2 2 2 2 2 2 2 2 2 2 2 2 2 2 2 2 2 2 2 2 2 2 2
5 5 4 4 4 5 4 3 3 4 4 4 4 3 4 3 2 2 2 2 2 1 1 2 2 1 1 1 2 3 3 3 3 3 2 2 2 2 2 2 3 2 3
5 5 5 4 4 4 4 4 4 4 4 4 4 3 3 3 3 3 2 2 1 1 1 1 2 2 2 1 1 2 2 3 2 2 3 3 3 2 2 2 3 3 3
4 4 5 5 5 4 4 4 4 4 4 4 4 3 3 3 3 2 2 2 2 2 1 1 1 1 1 2 1 1 2 2 3 2 2 3 3 3 3 3 3 3 3
4 4 4 4 4 4 4 4 4 3 3 3 3 3 3 3 3 2 2 2 2 1 1 1 1 1 1 1 2 2 2 2 2 2 2 2 2 3 3 3 3 3 3
Wind_Direction
176 175 170 176 174 163 162 171 168 165 161 157 155 145 137 135 122 120 119 115 112 98 92 115 121 115 106 105 110 103 102 115 132 257 328 344 48 38 13 7 11 6 19
178 169 170 169 167 164 169 173 165 166 175 167 155 147 149 144 137 139 139 129 126 124 121 116 123 123 113 114 113 114 122 129 134 140 2 5 10 324 19 6 7 16 2
170 163 165 169 171 179 180 168 158 155 159 149 144 149 148 143 142 145 140 133 132 138 143 143 149 134 131 129 130 127 124 112 112 131 144 342 344 6 29 3 11 356 1
170 167 171 177 178 184 179 166 161 158 157 150 151 151 145 142 143 144 139 137 133 130 141 153 159 157 165 161 148 145 126 105 104 112 113 28 338 333 54 16 358 348 343
169 176 185 182 172 172 173 170 159 156 158 151 142 141 145 151 158 145 141 141 140 132 126 146 162 162 164 160 153 153 138 126 119 115 115 49 347 8 288 271 295 321 325
174 185 187 174 169 173 175 165 156 155 148 140 145 149 151 159 157 153 142 138 143 147 148 140 136 140 147 148 150 153 152 150 154 146 153 177 237 230 221 181 121 41 324
182 185 182 177 176 179 172 160 163 167 155 149 156 151 151 165 160 154 149 139 143 152 156 149 130 125 131 131 129 126 140 149 156 159 164 194 203 209 178 168 166 170 231
182 185 183 180 181 176 168 171 175 162 159 160 163 160 155 170 163 160 154 136 132 144 152 154 147 146 149 143 128 110 99 104 167 162 176 199 200 194 182 182 181 169 307
186 189 187 183 181 177 177 181 176 162 163 165 161 164 162 176 172 166 152 138 132 144 151 149 155 159 160 149 133 132 110 343 16 139 155 164 132 136 140 110 95 89 336
195 193 188 185 184 187 190 184 171 162 169 164 161 169 171 182 182 174 161 147 147 154 138 149 157 155 154 153 150 150 159 224 116 68 53 25 16 37 112 143 158 144 170
192 187 184 187 189 188 184 175 161 160 157 162 165 174 184 192 190 178 170 160 165 163 162 180 171 153 148 151 153 163 182 170 137 120 84 34 24 23 17 37 152 152 164
173 179 185 187 188 178 170 171 164 161 160 169 167 175 204 207 184 173 169 168 161 156 174 188 175 157 152 152 157 158 147 129 111 102 91 54 17 348 340 6 78 127 163
165 174 178 174 178 172 171 171 162 165 169 176 173 183 200 194 184 174 169 169 166 161 166 161 158 160 158 156 152 149 141 127 121 124 169 232 243 247 336 24 30 40 27
171 175 166 157 154 155 164 169 169 175 177 177 180 188 189 178 183 175 169 167 162 160 155 128 125 112 111 102 110 131 143 148 157 184 207 233 268 54 41 39 51 38 32
169 167 161 155 153 149 149 169 179 188 183 178 186 183 178 194 199 178 172 176 173 164 136 105 92 89 95 74 72 92 129 139 169 187 179 187 144 102 294 5 106 88 123
163 163 160 154 151 149 141 112 90 141 153 167 170 170 184 185 168 166 168 168 165 154 134 136 158 173 186 193 192 199 186 199 203 187 187 196 208 216 240 313 117 166 241
162 161 156 155 154 156 156 155 146 88 90 137 163 169 170 165 162 161 161 155 152 148 140 160 177 189 196 198 198 200 208 209 184 182 203 211 215 224 223 232 228 239 252
154 156 155 159 159 163 167 167 163 157 149 130 132 160 164 158 155 158 152 130 118 137 154 172 191 194 193 195 200 203 206 190 180 191 203 210 208 213 226 240 232 232 245
148 151 154 153 154 157 156 153 152 157 155 148 126 119 146 139 129 131 136 138 154 170 186 191 192 188 188 193 198 194 190 194 196 195 209 213 210 209 230 238 234 243 238
149 152 146 146 146 145 150 154 158 160 162 163 172 181 139 117 121 130 146 161 169 179 187 194 197 190 187 187 183 179 185 195 199 209 223 224 221 215 228 234 236 239 240
147 151 145 141 147 151 154 161 164 163 166 169 177 163 150 152 164 163 165 177 190 195 192 190 190 187 190 186 180 177 182 200 206 212 220 225 218 224 233 232 231 231 238
147 149 153 153 151 150 151 155 157 161 166 164 153 139 148 150 157 161 174 187 195 194 181 171 182 193 196 194 188 187 197 215 225 226 229 226 222 227 230 229 233 237 238
144 144 142 144 143 146 146 148 153 157 155 153 146 141 148 164 165 169 176 179 171 174 171 168 175 192 197 198 197 198 210 225 228 220 217 221 223 225 223 228 231 238 244
144 148 149 148 146 149 154 156 155 154 153 153 149 149 153 159 162 168 172 155 155 161 159 166 177 182 186 193 207 219 226 232 221 213 209 214 222 227 225 230 238 245 248
145 150 152 154 153 154 153 153 152 153 154 151 150 150 149 148 154 163 165 157 157 157 156 161 169 173 195 213 230 250 260 250 238 225 212 211 222 228 229 231 236 242 245
137 141 144 144 146 149 150 150 151 154 154 149 148 149 149 153 160 167 166 159 161 173 178 181 185 189 212 232 247 257 270 270 266 244 219 210 217 233 235 239 241 244 250